Location: Middelsbur
(53.6609°N, 7.5020°E)
Time: 00:23:16
(UTC+00:00)

Spot 4 - Pass Details

Date: 06 July 2020
Orbit: 704 x 723 km, 98.3° (Epoch: 03 August)

Event Time Altitude Azimuth Distance (km) Brightness Sun altitude
Exits shadow 22:06:50 16° 158° (SSE) 1,805 5.3 -11.4°
Maximum altitude 22:10:40 81° 73° (ENE) 722 3.9 -11.6°
Drops below altitude 10° 22:15:28 10° 346° (NNW) 2,189 7.9 -11.9°
Sets 22:17:44 0° 346° (NNW) 3,112 9.3 -12.0°
